TimePDT,TemperatureF,Dew PointF,Humidity,Sea Level PressureIn,VisibilityMPH,Wind Direction,Wind SpeedMPH,Gust SpeedMPH,PrecipitationIn,Events,Conditions,WindDirDegrees,DateUTC
12:53 AM,82.0,45.0,27,29.89,10.0,Calm,Calm,-,N/A,,Clear,0,2013-05-13 07:53:00
1:53 AM,80.1,46.9,31,29.88,10.0,Calm,Calm,-,N/A,,Clear,0,2013-05-13 08:53:00
2:53 AM,79.0,43.0,28,29.87,10.0,West,3.5,-,N/A,,Clear,280,2013-05-13 09:53:00
3:53 AM,77.0,46.9,34,29.88,10.0,WSW,3.5,-,N/A,,Clear,250,2013-05-13 10:53:00
4:53 AM,77.0,33.1,20,29.87,10.0,NNW,9.2,-,N/A,,Clear,340,2013-05-13 11:53:00
5:53 AM,80.1,34.0,19,29.89,10.0,NW,5.8,-,N/A,,Clear,310,2013-05-13 12:53:00
6:53 AM,80.1,42.1,26,29.91,10.0,NW,5.8,-,N/A,,Clear,310,2013-05-13 13:53:00
7:53 AM,89.1,37.0,16,29.91,10.0,NNW,5.8,-,N/A,,Clear,330,2013-05-13 14:53:00
8:53 AM,93.9,30.9,11,29.91,10.0,Calm,Calm,-,N/A,,Clear,0,2013-05-13 15:53:00
9:53 AM,97.0,37.9,13,29.91,10.0,SSE,5.8,-,N/A,,Clear,160,2013-05-13 16:53:00
10:53 AM,99.0,33.1,10,29.91,10.0,ESE,5.8,-,N/A,,Clear,110,2013-05-13 17:53:00
11:53 AM,102.0,30.9,8,29.90,10.0,ESE,4.6,-,N/A,,Partly Cloudy,120,2013-05-13 18:53:00
1:53 PM,106.0,28.9,7,29.85,10.0,SE,9.2,-,N/A,,Clear,130,2013-05-13 20:53:00
2:53 PM,107.1,28.9,7,29.82,10.0,SE,13.8,-,N/A,,Partly Cloudy,130,2013-05-13 21:53:00
3:53 PM,108.0,28.0,6,29.79,10.0,East,10.4,-,N/A,,Clear,100,2013-05-13 22:53:00
5:53 PM,106.0,28.9,7,29.76,10.0,East,9.2,-,N/A,,Scattered Clouds,100,2013-05-14 00:53:00
6:53 PM,102.9,36.0,10,29.75,10.0,NW,11.5,20.7,N/A,,Clear,310,2013-05-14 01:53:00
7:53 PM,98.1,32.0,10,29.76,10.0,South,6.9,-,N/A,,Clear,180,2013-05-14 02:53:00
8:53 PM,99.0,30.0,9,29.79,10.0,NW,8.1,-,N/A,,Clear,310,2013-05-14 03:53:00
9:53 PM,98.1,30.9,9,29.80,10.0,NW,3.5,-,N/A,,Clear,320,2013-05-14 04:53:00
10:53 PM,91.9,37.0,15,29.81,10.0,Calm,Calm,-,N/A,,Clear,0,2013-05-14 05:53:00
11:53 PM,91.9,33.1,12,29.79,10.0,North,3.5,-,N/A,,Clear,350,2013-05-14 06:53:00